User: anonymous   Login
Location: Maiden_LMO
(35.5760°N, 81.2120°W)
Time: 00:19:23
(UTC-04:00)
Language:

ADEOS II - Orbit

View from above orbital plane
View from above orbital plane
View from above satellite
View from above satellite

Ground track
Ground track

The orbit data is extracted from the following two-line orbital elements,

1 27597U 02056A   17119.89100729 +.00000045 +00000-0 +35271-4 0  9999
2 27597 098.3651 091.5152 0002192 097.7729 262.3702 14.27282050748532
Epoch (UTC): 29 April 2017 21:23:03
Eccentricity: 0.0002192
inclination: 98.3651°
perigee height: 799 km
apogee height: 802 km
right ascension of ascending node: 91.5152°
argument of perigee: 97.7729°
revolutions per day: 14.27282050
mean anomaly at epoch: 262.3702°
orbit number at epoch: 74853

The dashed part of the orbit path shows where the satellite is in the earth's shadow,  

DLR